Weather History for Clermont County, Batavia, OH

Change the Weather History Date:

Saturday, June 8, 2013

  Actual Average (KLUK) Record (KLUK)
Temperature  
Mean Temperature 66 °F -  
Max Temperature 77 °F 83 °F 96 °F (1999)
Min Temperature 55 °F 61 °F 48 °F (1998)
Cooling Degree Days 1    
Growing Degree Days 16 (Base 50)    
Moisture  
Dew Point 58 °F    
Average Humidity 73    
Maximum Humidity 100    
Minimum Humidity 50    
Precipitation  
Precipitation 0.00 in - - ()
Sea Level Pressure  
Sea Level Pressure 29.98 in    
Wind  
Wind Speed 2 mph ()    
Max Wind Speed 6 mph    
Max Gust Speed -    
Visibility 7.4 miles    
Events      
Averages and records for this station are not official NWS values.
T = Trace of Precipitation, MM = Missing Value Source: Averaged Metar Reports

Daily Weather History Graph

Daily Weather History Graph

Search for Another Location

Airport:

Trip Planner

Search our weather history database for the weather conditions in past years. The results will help you decide how hot, cold, wet, or windy it might be!

Date:

Astronomy

Jun. 08, 2013 Rise Set
Actual Time 6:10 AM EDT 9:01 PM EDT
Civil Twilight 5:38 AM EDT 9:33 PM EDT
Nautical Twilight 4:58 AM EDT 10:13 PM EDT
Astronomical Twilight 4:12 AM EDT 10:59 PM EDT
Moon 6:17 AM EDT (6/8) 9:03 PM EDT (6/8)
Length of Visible Light 15h 54m
Length of Day
14h 50m
New Moon, 0% of the Moon is Illuminated
Jun 8
New Moon
Jun 16
First Quarter
Jun 23
Full
Jun 30
Last Quarter
Jul 8
New

Hourly Weather History & Observations

Time (EDT) Temp. Dew Point Humidity Pressure Visibility Wind Dir Wind Speed Gust Speed Precip Events Conditions
12:14 AM 62.6 °F 55.4 °F 77% 29.90 in 7.0 mi ENE 3.5 mph - N/A   Overcast
12:35 AM 62.6 °F 55.4 °F 77% 29.91 in 5.0 mi ENE 3.5 mph - N/A   Mostly Cloudy
12:54 AM 62.6 °F 55.4 °F 77% 29.91 in 5.0 mi Calm Calm - N/A   Overcast
1:14 AM 60.8 °F 55.4 °F 82% 29.91 in 5.0 mi East 4.6 mph - N/A   Scattered Clouds
1:35 AM 60.8 °F 55.4 °F 82% 29.91 in 5.0 mi ENE 4.6 mph - N/A   Clear
1:54 AM 60.8 °F 55.4 °F 82% 29.91 in 4.0 mi ENE 4.6 mph - N/A   Scattered Clouds
2:14 AM 59.0 °F 55.4 °F 88% 29.91 in 4.0 mi ENE 3.5 mph - N/A   Scattered Clouds
2:35 AM 59.0 °F 55.4 °F 88% 29.91 in 4.0 mi Calm Calm - N/A   Clear
2:54 AM 59.0 °F 55.4 °F 88% 29.91 in 4.0 mi Calm Calm - N/A   Clear
3:14 AM 59.0 °F 55.4 °F 88% 29.90 in 3.0 mi East 3.5 mph - N/A   Clear
3:35 AM 57.2 °F 55.4 °F 94% 29.91 in 4.0 mi Calm Calm - N/A   Clear
3:54 AM 57.2 °F 55.4 °F 94% 29.91 in 3.0 mi Calm Calm - N/A   Scattered Clouds
4:14 AM 57.2 °F 55.4 °F 94% 29.91 in 3.0 mi Calm Calm - N/A   Scattered Clouds
4:34 AM 55.4 °F 55.4 °F 100% 29.91 in 1.8 mi Calm Calm - N/A   Overcast
4:54 AM 57.2 °F 55.4 °F 94% 29.92 in 1.5 mi Calm Calm - N/A   Overcast
5:14 AM 57.2 °F 55.4 °F 94% 29.93 in 2.5 mi Calm Calm - N/A   Mostly Cloudy
5:34 AM 57.2 °F 55.4 °F 94% 29.94 in 2.0 mi Calm Calm - N/A   Overcast
5:54 AM 57.2 °F 55.4 °F 94% 29.95 in 2.5 mi Calm Calm - N/A   Mostly Cloudy
6:14 AM 57.2 °F 55.4 °F 94% 29.95 in 2.5 mi Calm Calm - N/A   Mostly Cloudy
6:34 AM 57.2 °F 55.4 °F 94% 29.95 in 1.8 mi Calm Calm - N/A   Mostly Cloudy
6:54 AM 57.2 °F 55.4 °F 94% 29.96 in 1.5 mi Calm Calm - N/A   Mostly Cloudy
7:14 AM 57.2 °F 55.4 °F 94% 29.96 in 1.5 mi Calm Calm - N/A   Overcast
7:34 AM 59.0 °F 57.2 °F 94% 29.96 in 1.8 mi Calm Calm - N/A   Overcast
7:54 AM 59.0 °F 57.2 °F 94% 29.97 in 2.5 mi Calm Calm - N/A   Scattered Clouds
8:14 AM 60.8 °F 57.2 °F 88% 29.98 in 3.0 mi Calm Calm - N/A   Mostly Cloudy
8:34 AM 60.8 °F 57.2 °F 88% 29.98 in 5.0 mi ESE 4.6 mph - N/A   Mostly Cloudy
8:54 AM 62.6 °F 57.2 °F 82% 29.99 in 5.0 mi ESE 3.5 mph - N/A   Clear
9:14 AM 62.6 °F 59.0 °F 88% 30.00 in 5.0 mi Calm Calm - N/A   Clear
9:34 AM 64.4 °F 59.0 °F 83% 30.00 in 7.0 mi ESE 3.5 mph - N/A   Mostly Cloudy
9:54 AM 64.4 °F 59.0 °F 83% 30.00 in 7.0 mi Calm Calm - N/A   Mostly Cloudy
10:14 AM 68.0 °F 59.0 °F 73% 30.00 in 10.0 mi ESE 3.5 mph - N/A   Scattered Clouds
10:34 AM 69.8 °F 59.0 °F 68% 30.00 in 10.0 mi Calm Calm - N/A   Clear
10:54 AM 69.8 °F 57.2 °F 64% 30.00 in 10.0 mi South 4.6 mph - N/A   Scattered Clouds
11:14 AM 71.6 °F 55.4 °F 57% 30.01 in 10.0 mi Calm Calm - N/A   Scattered Clouds
11:34 AM 71.6 °F 57.2 °F 60% 30.02 in 10.0 mi Calm Calm - N/A   Scattered Clouds
11:54 AM 71.6 °F 55.4 °F 57% 30.02 in 10.0 mi Calm Calm - N/A   Mostly Cloudy
12:15 PM 73.4 °F 55.4 °F 53% 30.01 in 10.0 mi Calm Calm - N/A   Scattered Clouds
12:34 PM 73.4 °F 55.4 °F 53% 30.00 in 10.0 mi East 3.5 mph - N/A   Clear
12:54 PM 73.4 °F 57.2 °F 57% 30.01 in 10.0 mi ENE 3.5 mph - N/A   Scattered Clouds
1:15 PM 73.4 °F 57.2 °F 57% 30.01 in 10.0 mi Calm Calm - N/A   Mostly Cloudy
1:34 PM 75.2 °F 59.0 °F 57% 30.01 in 10.0 mi SE 4.6 mph - N/A   Overcast
1:54 PM 75.2 °F 59.0 °F 57% 30.00 in 10.0 mi ESE 3.5 mph - N/A   Overcast
2:15 PM 75.2 °F 59.0 °F 57% 30.01 in 10.0 mi Calm Calm - N/A   Overcast
2:34 PM 77.0 °F 59.0 °F 54% 30.01 in 10.0 mi Calm Calm - N/A   Mostly Cloudy
2:54 PM 77.0 °F 59.0 °F 54% 30.00 in 10.0 mi Calm Calm - N/A   Mostly Cloudy
3:14 PM 75.2 °F 57.2 °F 53% 30.00 in 10.0 mi SE 4.6 mph - N/A   Overcast
3:34 PM 77.0 °F 59.0 °F 54% 30.00 in 10.0 mi East 4.6 mph - N/A   Overcast
3:55 PM 77.0 °F 57.2 °F 50% 29.99 in 10.0 mi ESE 3.5 mph - N/A   Mostly Cloudy
4:14 PM 77.0 °F 59.0 °F 54% 29.99 in 10.0 mi ENE 5.8 mph - N/A   Overcast
4:34 PM 75.2 °F 59.0 °F 57% 30.00 in 10.0 mi Calm Calm - N/A   Overcast
4:55 PM 77.0 °F 59.0 °F 54% 29.99 in 10.0 mi ENE 5.8 mph - N/A   Mostly Cloudy
5:14 PM 77.0 °F 59.0 °F 54% 29.99 in 10.0 mi Calm Calm - N/A   Mostly Cloudy
5:34 PM 75.2 °F 59.0 °F 57% 29.99 in 10.0 mi SE 3.5 mph - N/A   Overcast
5:55 PM 75.2 °F 59.0 °F 57% 29.99 in 10.0 mi East 3.5 mph - N/A   Overcast
6:14 PM 77.0 °F 59.0 °F 54% 29.99 in 10.0 mi Calm Calm - N/A   Scattered Clouds
6:34 PM 77.0 °F 60.8 °F 57% 29.99 in 10.0 mi Calm Calm - N/A   Mostly Cloudy
6:55 PM 77.0 °F 60.8 °F 57% 29.99 in 10.0 mi East 3.5 mph - N/A   Scattered Clouds
7:14 PM 77.0 °F 60.8 °F 57% 29.99 in 10.0 mi SE 4.6 mph - N/A   Clear
7:34 PM 77.0 °F 59.0 °F 54% 30.00 in 10.0 mi SSE 5.8 mph - N/A   Clear
7:55 PM 75.2 °F 59.0 °F 57% 30.00 in 10.0 mi Calm Calm - N/A   Clear
8:14 PM 75.2 °F 60.8 °F 61% 30.00 in 10.0 mi Calm Calm - N/A   Scattered Clouds
8:34 PM 73.4 °F 59.0 °F 61% 30.01 in 10.0 mi Calm Calm - N/A   Scattered Clouds
8:55 PM 71.6 °F 60.8 °F 69% 30.02 in 10.0 mi Calm Calm - N/A   Mostly Cloudy
9:14 PM 71.6 °F 60.8 °F 69% 30.02 in 10.0 mi Calm Calm - N/A   Mostly Cloudy
9:34 PM 71.6 °F 60.8 °F 69% 30.03 in 10.0 mi Calm Calm - N/A   Overcast
9:55 PM 71.6 °F 62.6 °F 73% 30.03 in 10.0 mi Calm Calm - N/A   Overcast
10:14 PM 71.6 °F 62.6 °F 73% 30.04 in 10.0 mi Calm Calm - N/A   Overcast
10:34 PM 71.6 °F 62.6 °F 73% 30.05 in 10.0 mi Calm Calm - N/A   Overcast
10:55 PM 71.6 °F 62.6 °F 73% 30.05 in 10.0 mi Calm Calm - N/A   Overcast
11:14 PM 69.8 °F 62.6 °F 78% 30.05 in 10.0 mi Calm Calm - N/A   Overcast
11:34 PM 69.8 °F 62.6 °F 78% 30.05 in 10.0 mi ESE 3.5 mph - N/A   Overcast
11:54 PM 69.8 °F 62.6 °F 78% 30.05 in 10.0 mi Calm Calm - N/A   Overcast